Погода в Емуртлах

Россия / Тюменская область     56°09′40″N   66°27′38″E
темп.,
°C
ветер,
м/с
пор.,
м/с
влажн.,
%
обл.,
%
осадки,
мм/ч
давл.,
гПа
погр.,
м
13 апреля, вт
вт1323:00+4сз33865 0.0 103740
02:00+3с33825 0.0 103819
05:00+2с22765 0.0 104010
08:00+2сз221001 0.0 104142
11:00+6з23920 0.0 1041198
14:00+10зюз246726 0.0 1040711
17:00+11ююз35710 0.0 1038350
20:00+6ююз46875 0.0 103895
14 апреля, ср
ср1423:00+5ююз49904 0.0 1037145
02:00+5юз5139384 0.0 1035246
05:00+5юз61493100 0.0 1034306
08:00+6юз61391100 0.0 1033384
11:00+12зюз7107799 0.0 1031618
14:00+16з686649 0.0 1029919
17:00+17з576741 0.0 10281036
20:00+12зюз468233 0.0 102875
15 апреля, чт
чт1523:00+10зюз378865 0.0 1027100
02:00+9з359022 0.0 102770
05:00+7зюз33885 0.0 102729
08:00+10зюз35825 0.0 1026164
11:00+15зюз46647 0.0 1024608
14:00+18зюз57565 0.0 10221198
17:00+18зюз58565 0.0 10201211
20:00+13юз48675 0.0 1019128
16 апреля, пт
пт1623:00+10юз4107055 0.0 1018152
02:00+8зюз4981100 0.0 1016136
05:00+8зюз3684100 0.0 101597
08:00+10зсз3880100 0.0 1015278
11:00+11с7679100 0.0 1015848
14:00+5ссв7993100 0.6 1018667
17:00+5ссв61083100 1.1 1020934
20:00+4св4973100 0.1 1021335
17 апреля, сб
сб1723:00+1св49775 0.1 1022347
02:00−1ссв48785 0.0 1023298
05:00−1св36765 0.0 1024303
08:000св23560 0.0 1024546
11:00+3сз33435 0.0 10221179
14:00+5зсз3534100 0.0 10211634
17:00+6сз5640100 0.0 10191977
20:00+2сз257892 0.8 1019153